This is the latest recevied weather packets stored in our database for station/object N5ATR. If no packets are shown the sender has not sent any weather packets the latest 10 day(s).
| Time | Temp. | Humidity | Pressure | Rain* | Wind** | Luminosity | Snow |
|---|---|---|---|---|---|---|---|
| 1788374305 | 25.56° C | 37% | 1024.6 hPa | 0 mm | - | 147 W/m² | - |
| 1788374001 | 25.56° C | 37% | 1024.6 hPa | 0 mm | - | 458 W/m² | - |
| 1788373697 | 25.56° C | 37% | 1024.6 hPa | 0 mm | - | 215 W/m² | - |
| 1788373393 | 26.11° C | 36% | 1024.6 hPa | 0 mm | - | 856 W/m² | - |
| 1788373089 | 26.11° C | 36% | 1024.9 hPa | 0 mm | - | 377 W/m² | - |
| 1788372790 | 26.11° C | 35% | 1024.7 hPa | 0 mm | - | 750 W/m² | - |
| 1788372484 | 25.56° C | 36% | 1024.9 hPa | 0 mm | - | 137 W/m² | - |
| 1788372180 | 27.22° C | 35% | 1025.1 hPa | 0 mm | - | 730 W/m² | - |
| 1788371875 | 26.11° C | 36% | 1024.9 hPa | 0 mm | - | 689 W/m² | - |
| 1788371570 | 26.11° C | 36% | 1025 hPa | 0 mm | - | 679 W/m² | - |
| 1788371266 | 26.67° C | 34% | 1025.1 hPa | 0 mm | - | 677 W/m² | - |
| 1788370962 | 25.56° C | 37% | 1025.2 hPa | 0 mm | - | 683 W/m² | - |
| 1788370657 | 27.22° C | 35% | 1025.1 hPa | 0 mm | - | 677 W/m² | - |
| 1788370357 | 26.11° C | 36% | 1025.5 hPa | 0 mm | - | 338 W/m² | - |
| 1788370052 | 26.11° C | 37% | 1025.4 hPa | 0 mm | - | 656 W/m² | - |
| 1788369751 | 25.56° C | 38% | 1025.2 hPa | 0 mm | - | 645 W/m² | - |
| 1788369446 | 26.11° C | 36% | 1025.2 hPa | 0 mm | - | 633 W/m² | - |
| 1788369142 | 25.56° C | 36% | 1025.1 hPa | 0 mm | - | 623 W/m² | - |
| 1788368838 | 26.11° C | 36% | 1025.2 hPa | 0 mm | - | 612 W/m² | - |
| 1788368534 | 25.56° C | 37% | 1025.6 hPa | 0 mm | - | 603 W/m² | - |
| 1788368234 | 25° C | 38% | 1025.1 hPa | 0 mm | - | 594 W/m² | - |
| 1788367929 | 25° C | 39% | 1025.4 hPa | 0 mm | - | 584 W/m² | - |
| 1788367629 | 25° C | 39% | 1025 hPa | 0 mm | - | 573 W/m² | - |
| 1788367329 | 24.44° C | 39% | 1025 hPa | 0 mm | - | 563 W/m² | - |
| 1788367023 | 24.44° C | 38% | 1025.4 hPa | 0 mm | - | 551 W/m² | - |
* Rain latest hour (hover to see other rain measurements)
** Current wind speed in m/s (hover to see current wind gust speed)